Voltar ao catálogo

ICEYE-X4

AtivoCiênciaPO
NORAD 44390·PAYLOAD·🇫🇮 Finland

Lançado Jul 5, 2019 de Vostochny Cosmodrome

Loading…

Próximas Passagens (próximas 24 horas)

TLE

AtualizadoSource: Space-Track

Época: Sep 14, 2026, 14:09 UTC

1 44390U 19038D   26257.58961804  .00009189  00000-0  30845-3 0  9994
2 44390  97.8690 295.8511 0012258 358.2149   1.9045 15.31046889395474

Acompanhe ICEYE-X4 em tempo real com AllMySat

Download on the App Store